User: anonymous   Login
Location: Ash Observatory
(39.7321°N, 75.2004°W)
Time: 07:38:25
(UTC-04:00)
Language:

ISS - Orbit

View from above orbital plane
View from above orbital plane
View from above satellite
View from above satellite

Ground track
Ground track

The orbit data is extracted from the following two-line orbital elements,

1 25544U 98067A   19288.37181853 -.00000319  00000-0  24598-5 0  9991
2 25544  51.6422 125.3098 0007168 149.9278 271.3170 15.50195184193904
Epoch (UTC): 15 October 2019 08:55:25
Eccentricity: 0.0007168
inclination: 51.6422°
perigee height: 411 km
apogee height: 421 km
right ascension of ascending node: 125.3098°
argument of perigee: 149.9278°
revolutions per day: 15.50195184
mean anomaly at epoch: 271.3170°
orbit number at epoch: 19390

The dashed part of the orbit path shows where the satellite is in the earth's shadow,  

DLR